Time,TemperatureF,DewpointF,PressureIn,WindDirection,WindDirectionDegrees,WindSpeedMPH,WindSpeedGustMPH,Humidity,HourlyPrecipIn,Conditions,Clouds,dailyrainin,SoftwareType,DateUTC
2013-09-10 00:13:00,80.0,72.0,29.92,SSW,206,2.0,6.0,76,0.00,,,0.00,,2013-09-10 04:13:00,
2013-09-10 00:24:00,79.0,71.0,29.92,SW,224,1.0,5.0,77,0.00,,,0.00,,2013-09-10 04:24:00,
2013-09-10 00:43:00,79.0,72.0,29.91,SW,227,0.0,6.0,78,0.00,,,0.00,,2013-09-10 04:43:00,
2013-09-10 00:53:00,79.0,71.0,29.92,West,267,2.0,6.0,77,0.00,,,0.00,,2013-09-10 04:53:00,
2013-09-10 01:13:00,79.0,71.0,29.92,WSW,254,2.0,5.0,76,0.00,,,0.00,,2013-09-10 05:13:00,
2013-09-10 01:23:00,79.0,70.0,29.92,SW,235,1.0,6.0,75,0.00,,,0.00,,2013-09-10 05:23:00,
2013-09-10 01:43:00,79.0,70.0,29.92,SW,214,1.0,4.0,75,0.00,,,0.00,,2013-09-10 05:43:00,
2013-09-10 01:53:00,79.0,71.0,29.92,SSW,206,1.0,6.0,76,0.00,,,0.00,,2013-09-10 05:53:00,
2013-09-10 02:12:00,78.0,71.0,29.93,WSW,242,1.0,5.0,78,0.00,,,0.00,,2013-09-10 06:12:00,
2013-09-10 02:22:00,78.0,71.0,29.93,WSW,255,1.0,6.0,79,0.00,,,0.00,,2013-09-10 06:22:00,
2013-09-10 02:42:00,78.0,71.0,29.93,SW,214,2.0,5.0,79,0.00,,,0.00,,2013-09-10 06:42:00,
2013-09-10 02:52:00,78.0,71.0,29.93,SSW,194,2.0,6.0,80,0.00,,,0.00,,2013-09-10 06:52:00,
2013-09-10 03:12:00,77.0,71.0,29.93,WSW,240,2.0,5.0,81,0.00,,,0.00,,2013-09-10 07:12:00,
2013-09-10 03:22:00,78.0,72.0,29.93,SW,217,1.0,6.0,81,0.00,,,0.00,,2013-09-10 07:22:00,
2013-09-10 03:42:00,77.0,71.0,29.93,West,269,0.0,5.0,81,0.00,,,0.00,,2013-09-10 07:42:00,
2013-09-10 03:52:00,77.0,71.0,29.93,WSW,242,1.0,5.0,82,0.00,,,0.00,,2013-09-10 07:52:00,
2013-09-10 04:12:00,77.0,71.0,29.94,West,262,1.0,4.0,82,0.00,,,0.00,,2013-09-10 08:12:00,
2013-09-10 04:22:00,76.0,70.0,29.94,SSW,209,0.0,6.0,83,0.00,,,0.00,,2013-09-10 08:22:00,
2013-09-10 04:52:00,76.0,71.0,29.95,SW,220,0.0,5.0,85,0.00,,,0.00,,2013-09-10 08:52:00,
2013-09-10 05:11:00,75.0,71.0,29.95,SW,228,0.0,3.0,86,0.00,,,0.00,,2013-09-10 09:11:00,
2013-09-10 05:22:00,75.0,71.0,29.95,South,178,0.0,2.0,86,0.00,,,0.00,,2013-09-10 09:22:00,
2013-09-10 05:43:00,74.0,70.0,29.96,South,182,0.0,2.0,87,0.00,,,0.00,,2013-09-10 09:43:00,
2013-09-10 05:54:00,74.0,71.0,29.96,WSW,240,0.0,3.0,89,0.00,,,0.00,,2013-09-10 09:54:00,
2013-09-10 06:13:00,73.0,70.0,29.97,SSW,198,0.0,1.0,89,0.00,,,0.00,,2013-09-10 10:13:00,
2013-09-10 06:23:00,73.0,70.0,29.97,South,185,0.0,3.0,90,0.00,,,0.00,,2013-09-10 10:23:00,
2013-09-10 06:42:00,73.0,70.0,29.98,South,181,0.0,3.0,90,0.00,,,0.00,,2013-09-10 10:42:00,
2013-09-10 06:53:00,73.0,70.0,29.98,South,187,0.0,3.0,90,0.00,,,0.00,,2013-09-10 10:53:00,
2013-09-10 07:12:00,72.0,69.0,29.98,South,178,0.0,2.0,91,0.00,,,0.00,,2013-09-10 11:12:00,
2013-09-10 07:22:00,72.0,69.0,29.99,SSW,202,0.0,2.0,91,0.00,,,0.00,,2013-09-10 11:22:00,
2013-09-10 07:42:00,72.0,69.0,30.00,SSW,195,0.0,3.0,91,0.00,,,0.00,,2013-09-10 11:42:00,
2013-09-10 07:52:00,72.0,69.0,30.00,SSW,211,0.0,2.0,91,0.00,,,0.00,,2013-09-10 11:52:00,
2013-09-10 08:12:00,72.0,70.0,30.01,South,184,0.0,3.0,92,0.00,,,0.00,,2013-09-10 12:12:00,
2013-09-10 08:22:00,71.0,69.0,30.01,South,177,0.0,2.0,92,0.00,,,0.00,,2013-09-10 12:22:00,
2013-09-10 08:42:00,72.0,70.0,30.01,SW,220,1.0,3.0,92,0.00,,,0.00,,2013-09-10 12:42:00,
2013-09-10 08:52:00,73.0,70.0,30.01,SSW,202,0.0,3.0,90,0.00,,,0.00,,2013-09-10 12:52:00,
2013-09-10 09:11:00,74.0,71.0,30.02,SE,140,1.0,4.0,89,0.00,,,0.00,,2013-09-10 13:11:00,
2013-09-10 09:21:00,75.0,71.0,30.02,SSW,200,0.0,3.0,87,0.00,,,0.00,,2013-09-10 13:21:00,
2013-09-10 09:42:00,76.0,71.0,30.03,West,261,1.0,4.0,84,0.00,,,0.00,,2013-09-10 13:42:00,
2013-09-10 09:52:00,78.0,71.0,30.03,SW,224,1.0,4.0,80,0.00,,,0.00,,2013-09-10 13:52:00,
2013-09-10 10:11:00,79.0,71.0,30.03,West,266,2.0,6.0,77,0.00,,,0.00,,2013-09-10 14:11:00,
2013-09-10 10:21:00,80.0,71.0,30.03,WSW,242,1.0,5.0,75,0.00,,,0.00,,2013-09-10 14:21:00,
2013-09-10 10:42:00,82.0,70.0,30.03,West,261,3.0,7.0,68,0.00,,,0.00,,2013-09-10 14:42:00,
2013-09-10 10:52:00,83.0,71.0,30.03,WNW,290,1.0,6.0,67,0.00,,,0.00,,2013-09-10 14:52:00,
2013-09-10 11:11:00,85.0,70.0,30.03,West,274,4.0,9.0,61,0.00,,,0.00,,2013-09-10 15:11:00,
2013-09-10 11:22:00,86.0,69.0,30.03,West,275,5.0,10.0,58,0.00,,,0.00,,2013-09-10 15:22:00,
2013-09-10 11:43:00,88.0,70.0,30.03,WSW,251,4.0,9.0,55,0.00,,,0.00,,2013-09-10 15:43:00,
2013-09-10 11:54:00,89.0,68.0,30.03,WNW,298,5.0,9.0,50,0.00,,,0.00,,2013-09-10 15:54:00,
2013-09-10 12:13:00,91.0,67.0,30.03,West,264,5.0,10.0,45,0.00,,,0.00,,2013-09-10 16:13:00,
2013-09-10 12:23:00,91.0,66.0,30.03,WSW,250,4.0,9.0,44,0.00,,,0.00,,2013-09-10 16:23:00,
2013-09-10 12:43:00,92.0,65.0,30.03,WSW,243,5.0,13.0,41,0.00,,,0.00,,2013-09-10 16:43:00,
2013-09-10 12:53:00,94.0,66.0,30.02,West,277,5.0,10.0,40,0.00,,,0.00,,2013-09-10 16:53:00,
2013-09-10 13:12:00,94.0,64.0,30.02,WSW,256,6.0,14.0,38,0.00,,,0.00,,2013-09-10 17:12:00,
2013-09-10 13:23:00,94.0,62.0,30.02,WNW,303,7.0,12.0,35,0.00,,,0.00,,2013-09-10 17:23:00,
2013-09-10 13:43:00,95.0,62.0,30.02,SW,214,6.0,12.0,34,0.00,,,0.00,,2013-09-10 17:43:00,
2013-09-10 13:53:00,95.0,63.0,30.01,West,273,7.0,13.0,35,0.00,,,0.00,,2013-09-10 17:53:00,
2013-09-10 14:12:00,95.0,63.0,30.02,West,263,4.0,15.0,35,0.00,,,0.00,,2013-09-10 18:12:00,
2013-09-10 14:22:00,96.0,63.0,30.01,WNW,292,9.0,13.0,34,0.00,,,0.00,,2013-09-10 18:22:00,
2013-09-10 14:43:00,96.0,64.0,30.01,WNW,296,8.0,13.0,35,0.00,,,0.00,,2013-09-10 18:43:00,
2013-09-10 14:52:00,96.0,64.0,30.01,West,262,9.0,14.0,35,0.00,,,0.00,,2013-09-10 18:52:00,
2013-09-10 15:11:00,96.0,64.0,30.01,WSW,238,8.0,14.0,35,0.00,,,0.00,,2013-09-10 19:11:00,
2013-09-10 15:22:00,95.0,63.0,30.01,West,259,5.0,15.0,35,0.00,,,0.00,,2013-09-10 19:22:00,
2013-09-10 15:42:00,95.0,64.0,30.00,West,277,8.0,12.0,36,0.00,,,0.00,,2013-09-10 19:42:00,
2013-09-10 15:52:00,96.0,65.0,29.99,WNW,296,8.0,15.0,36,0.00,,,0.00,,2013-09-10 19:52:00,
2013-09-10 16:12:00,96.0,64.0,29.99,NW,308,5.0,10.0,35,0.00,,,0.00,,2013-09-10 20:12:00,
2013-09-10 16:21:00,96.0,64.0,29.98,WNW,294,5.0,11.0,35,0.00,,,0.00,,2013-09-10 20:21:00,
2013-09-10 16:42:00,96.0,65.0,29.98,SSW,209,5.0,14.0,36,0.00,,,0.00,,2013-09-10 20:42:00,
2013-09-10 16:52:00,96.0,65.0,29.98,WSW,257,3.0,14.0,37,0.00,,,0.00,,2013-09-10 20:52:00,
2013-09-10 17:11:00,95.0,65.0,29.97,WNW,302,4.0,14.0,37,0.00,,,0.00,,2013-09-10 21:11:00,
2013-09-10 17:23:00,95.0,64.0,29.97,West,267,5.0,10.0,36,0.00,,,0.00,,2013-09-10 21:23:00,
2013-09-10 17:44:00,94.0,64.0,29.97,SW,228,5.0,11.0,37,0.00,,,0.00,,2013-09-10 21:44:00,
2013-09-10 17:54:00,94.0,64.0,29.96,SW,234,3.0,8.0,37,0.00,,,0.00,,2013-09-10 21:54:00,
2013-09-10 18:14:00,95.0,64.0,29.96,WNW,285,4.0,12.0,36,0.00,,,0.00,,2013-09-10 22:14:00,
2013-09-10 18:24:00,95.0,62.0,29.97,WSW,251,3.0,9.0,34,0.00,,,0.00,,2013-09-10 22:24:00,
2013-09-10 18:42:00,94.0,63.0,29.98,South,180,3.0,11.0,36,0.00,,,0.00,,2013-09-10 22:42:00,
2013-09-10 18:54:00,94.0,64.0,29.98,SW,226,2.0,9.0,37,0.00,,,0.00,,2013-09-10 22:54:00,
2013-09-10 19:13:00,93.0,64.0,29.98,SW,232,2.0,7.0,38,0.00,,,0.00,,2013-09-10 23:13:00,
2013-09-10 19:23:00,93.0,65.0,29.98,SSW,198,0.0,7.0,40,0.00,,,0.00,,2013-09-10 23:23:00,
2013-09-10 19:42:00,92.0,66.0,29.99,West,262,0.0,4.0,42,0.00,,,0.00,,2013-09-10 23:42:00,
2013-09-10 19:53:00,91.0,65.0,29.99,SSW,199,1.0,4.0,43,0.00,,,0.00,,2013-09-10 23:53:00,
2013-09-10 20:11:00,90.0,66.0,30.00,SW,234,0.0,4.0,45,0.00,,,0.00,,2013-09-11 00:11:00,
2013-09-10 20:22:00,88.0,65.0,30.01,South,181,2.0,6.0,47,0.00,,,0.00,,2013-09-11 00:22:00,
2013-09-10 20:42:00,86.0,68.0,30.01,SW,215,2.0,6.0,55,0.00,,,0.00,,2013-09-11 00:42:00,
2013-09-10 20:52:00,85.0,69.0,30.01,South,188,3.0,7.0,59,0.00,,,0.00,,2013-09-11 00:52:00,
2013-09-10 21:11:00,84.0,70.0,30.01,SW,215,2.0,7.0,62,0.00,,,0.00,,2013-09-11 01:11:00,
2013-09-10 21:21:00,83.0,70.0,30.02,WSW,257,2.0,7.0,64,0.00,,,0.00,,2013-09-11 01:21:00,
2013-09-10 21:42:00,82.0,69.0,30.02,South,169,2.0,9.0,65,0.00,,,0.00,,2013-09-11 01:42:00,
2013-09-10 21:53:00,81.0,69.0,30.03,SW,214,3.0,7.0,67,0.00,,,0.00,,2013-09-11 01:53:00,
2013-09-10 22:11:00,81.0,70.0,30.03,South,186,2.0,8.0,69,0.00,,,0.00,,2013-09-11 02:11:00,
2013-09-10 22:22:00,80.0,69.0,30.03,WSW,254,3.0,10.0,70,0.00,,,0.00,,2013-09-11 02:22:00,
2013-09-10 22:43:00,79.0,69.0,30.03,SSW,192,3.0,10.0,71,0.00,,,0.00,,2013-09-11 02:43:00,
2013-09-10 22:52:00,79.0,70.0,30.03,SSW,205,3.0,7.0,74,0.00,,,0.00,,2013-09-11 02:52:00,
2013-09-10 23:12:00,78.0,69.0,30.03,SSE,161,3.0,10.0,75,0.00,,,0.00,,2013-09-11 03:12:00,
2013-09-10 23:22:00,78.0,70.0,30.04,WSW,249,3.0,7.0,76,0.00,,,0.00,,2013-09-11 03:22:00,
2013-09-10 23:44:00,78.0,71.0,30.04,West,279,2.0,8.0,78,0.00,,,0.00,,2013-09-11 03:44:00,
2013-09-10 23:55:00,78.0,71.0,30.04,West,277,2.0,7.0,78,0.00,,,0.00,,2013-09-11 03:55:00,